Time,TemperatureF,DewpointF,PressureIn,WindDirection,WindDirectionDegrees,WindSpeedMPH,WindSpeedGustMPH,Humidity,HourlyPrecipIn,Conditions,Clouds,dailyrainin,SoftwareType,DateUTC
2013-11-01 00:01:00,55.1,54.3,28.98,NW,313,1.0,2.0,97,0.02,,-RA,0.87,VWS V14.01,2013-11-01 04:01:00,
2013-11-01 00:02:00,55.1,54.3,28.98,NW,313,1.0,2.0,97,0.02,,-RA,0.87,VWS V14.01,2013-11-01 04:02:00,
2013-11-01 00:07:00,55.1,54.3,28.98,NW,310,1.0,2.0,97,0.01,,-RA,0.00,VWS V14.01,2013-11-01 04:07:00,
2013-11-01 00:12:00,55.0,54.2,28.98,NW,305,0.0,0.0,97,0.01,,-RA,0.00,VWS V14.01,2013-11-01 04:12:00,
2013-11-01 00:17:00,54.9,54.1,28.98,NW,305,0.0,1.0,97,0.02,,-RA,0.01,VWS V14.01,2013-11-01 04:17:00,
2013-11-01 00:22:00,54.9,54.1,28.98,NW,305,1.0,1.0,97,0.02,,-RA,0.01,VWS V14.01,2013-11-01 04:22:00,
2013-11-01 00:27:00,54.9,54.1,28.97,NW,321,3.0,4.0,97,0.02,,-RA,0.01,VWS V14.01,2013-11-01 04:27:00,
2013-11-01 00:32:00,54.8,54.0,28.97,NW,315,3.0,4.0,97,0.02,,-RA,0.01,VWS V14.01,2013-11-01 04:32:00,
2013-11-01 00:37:00,54.7,53.9,28.97,WNW,301,4.0,4.0,97,0.01,,-RA,0.01,VWS V14.01,2013-11-01 04:37:00,
2013-11-01 00:42:00,54.6,53.8,28.96,NW,304,1.0,2.0,97,0.02,,-RA,0.02,VWS V14.01,2013-11-01 04:42:00,
2013-11-01 00:47:00,54.4,53.6,28.96,NW,313,3.0,4.0,97,0.02,,-RA,0.02,VWS V14.01,2013-11-01 04:47:00,
2013-11-01 00:52:00,54.2,53.4,28.95,WNW,288,3.0,3.0,97,0.02,,-RA,0.02,VWS V14.01,2013-11-01 04:52:00,
2013-11-01 00:57:00,54.1,53.3,28.95,NW,323,3.0,4.0,97,0.02,,-RA,0.02,VWS V14.01,2013-11-01 04:57:00,
2013-11-01 01:02:00,53.9,53.1,28.95,NNW,335,5.0,5.0,97,0.02,,-RA,0.02,VWS V14.01,2013-11-01 05:02:00,
2013-11-01 01:07:00,53.6,52.8,28.95,WNW,301,3.0,3.0,97,0.03,,-RA,0.03,VWS V14.01,2013-11-01 05:07:00,
2013-11-01 01:12:00,53.3,52.5,28.95,WNW,296,1.0,2.0,97,0.03,,-RA,0.03,VWS V14.01,2013-11-01 05:12:00,
2013-11-01 01:17:00,53.1,52.3,28.96,NW,310,2.0,3.0,97,0.03,,-RA,0.03,VWS V14.01,2013-11-01 05:17:00,
2013-11-01 01:22:00,52.9,52.1,28.96,West,266,2.0,3.0,97,0.03,,-RA,0.03,VWS V14.01,2013-11-01 05:22:00,
2013-11-01 01:27:00,52.7,51.9,28.96,NW,314,2.0,3.0,97,0.04,,-RA,0.04,VWS V14.01,2013-11-01 05:27:00,
2013-11-01 01:32:00,52.6,51.8,28.95,West,280,4.0,4.0,97,0.04,,-RA,0.04,VWS V14.01,2013-11-01 05:32:00,
2013-11-01 01:37:00,52.4,51.6,28.95,NNW,347,3.0,4.0,97,0.03,,-RA,0.04,VWS V14.01,2013-11-01 05:37:00,
2013-11-01 01:42:00,52.1,51.3,28.95,NW,326,9.0,9.0,97,0.03,,-RA,0.04,VWS V14.01,2013-11-01 05:42:00,
2013-11-01 01:45:00,51.9,51.1,28.94,NW,316,4.0,4.0,97,0.04,,-RA,0.05,VWS V14.01,2013-11-01 05:45:00,
2013-11-01 01:50:00,51.7,50.9,28.94,WNW,282,4.0,5.0,97,0.04,,-RA,0.05,VWS V14.01,2013-11-01 05:50:00,
2013-11-01 01:55:00,51.4,50.6,28.94,NW,311,3.0,5.0,97,0.04,,-RA,0.05,VWS V14.01,2013-11-01 05:55:00,
2013-11-01 02:00:00,51.2,50.4,28.94,NNW,332,3.0,4.0,97,0.05,,-RA,0.06,VWS V14.01,2013-11-01 06:00:00,
2013-11-01 02:05:00,51.0,50.2,28.93,WNW,295,9.0,9.0,97,0.04,,-RA,0.06,VWS V14.01,2013-11-01 06:05:00,
2013-11-01 02:10:00,50.9,50.1,28.93,WNW,301,7.0,7.0,97,0.04,,-RA,0.06,VWS V14.01,2013-11-01 06:10:00,
2013-11-01 02:15:00,50.7,49.9,28.93,West,277,8.0,8.0,97,0.04,,-RA,0.06,VWS V14.01,2013-11-01 06:15:00,
2013-11-01 02:20:00,50.6,49.8,28.93,WNW,300,2.0,3.0,97,0.04,,-RA,0.06,VWS V14.01,2013-11-01 06:20:00,
2013-11-01 02:25:00,50.5,49.7,28.92,NW,314,3.0,6.0,97,0.04,,-RA,0.06,VWS V14.01,2013-11-01 06:25:00,
2013-11-01 02:30:00,50.4,49.6,28.92,NW,324,5.0,6.0,97,0.04,,-RA,0.06,VWS V14.01,2013-11-01 06:30:00,
2013-11-01 02:35:00,50.4,49.6,28.92,WNW,294,3.0,5.0,97,0.02,,-RA,0.06,VWS V14.01,2013-11-01 06:35:00,
2013-11-01 02:40:00,50.3,49.8,28.92,NW,326,3.0,3.0,98,0.02,,-RA,0.06,VWS V14.01,2013-11-01 06:40:00,
2013-11-01 02:45:00,50.3,49.8,28.92,WNW,300,3.0,3.0,98,0.02,,-RA,0.06,VWS V14.01,2013-11-01 06:45:00,
2013-11-01 02:50:00,50.3,49.5,28.92,NW,324,2.0,2.0,97,0.02,,-RA,0.06,VWS V14.01,2013-11-01 06:50:00,
2013-11-01 02:55:00,50.3,49.5,28.92,NW,308,1.0,3.0,97,0.02,,-RA,0.06,VWS V14.01,2013-11-01 06:55:00,
2013-11-01 03:00:00,50.3,49.5,28.93,West,271,3.0,3.0,97,0.02,,-RA,0.06,VWS V14.01,2013-11-01 07:00:00,
2013-11-01 03:05:00,50.3,49.5,28.92,NNW,334,2.0,2.0,97,0.00,,-RA,0.06,VWS V14.01,2013-11-01 07:05:00,
2013-11-01 03:10:00,50.3,49.8,28.91,West,280,6.0,6.0,98,0.00,,-RA,0.06,VWS V14.01,2013-11-01 07:10:00,
2013-11-01 03:15:00,50.3,49.8,28.91,NW,318,2.0,5.0,98,0.00,,-RA,0.06,VWS V14.01,2013-11-01 07:15:00,
2013-11-01 03:20:00,50.3,49.8,28.91,NW,315,4.0,4.0,98,0.00,,-RA,0.06,VWS V14.01,2013-11-01 07:20:00,
2013-11-01 03:25:00,50.2,49.7,28.91,NW,319,4.0,6.0,98,0.00,,-RA,0.06,VWS V14.01,2013-11-01 07:25:00,
2013-11-01 03:30:00,50.2,49.7,28.91,WNW,300,2.0,8.0,98,0.00,,-RA,0.06,VWS V14.01,2013-11-01 07:30:00,
2013-11-01 03:35:00,50.2,49.7,28.92,NW,305,4.0,4.0,98,0.00,,-RA,0.06,VWS V14.01,2013-11-01 07:35:00,
2013-11-01 03:40:00,50.2,49.7,28.91,WNW,303,3.0,4.0,98,0.00,,-RA,0.06,VWS V14.01,2013-11-01 07:40:00,
2013-11-01 03:45:00,50.2,49.7,28.92,NW,310,5.0,5.0,98,0.00,,-RA,0.06,VWS V14.01,2013-11-01 07:45:00,
2013-11-01 03:50:00,50.1,49.6,28.92,WNW,294,7.0,10.0,98,0.00,,-RA,0.06,VWS V14.01,2013-11-01 07:50:00,
2013-11-01 03:55:00,50.0,49.5,28.92,NNE,32,5.0,10.0,98,0.00,,-RA,0.06,VWS V14.01,2013-11-01 07:55:00,
2013-11-01 04:00:00,50.0,49.5,28.92,NW,318,3.0,3.0,98,0.00,,-RA,0.06,VWS V14.01,2013-11-01 08:00:00,
2013-11-01 04:05:00,49.8,49.3,28.91,NNW,335,6.0,6.0,98,0.00,,-RA,0.06,VWS V14.01,2013-11-01 08:05:00,
2013-11-01 04:10:00,49.8,49.3,28.91,NW,315,4.0,4.0,98,0.00,,-RA,0.06,VWS V14.01,2013-11-01 08:10:00,
2013-11-01 04:15:00,49.8,49.3,28.91,NW,320,8.0,11.0,98,0.00,,-RA,0.06,VWS V14.01,2013-11-01 08:15:00,
2013-11-01 04:21:00,49.9,49.4,28.92,WNW,293,3.0,9.0,98,0.01,,-RA,0.07,VWS V14.01,2013-11-01 08:21:00,
2013-11-01 04:25:00,49.8,49.3,28.92,NNW,336,10.0,17.0,98,0.02,,-RA,0.08,VWS V14.01,2013-11-01 08:25:00,
2013-11-01 04:31:00,49.7,49.2,28.92,NNW,327,10.0,11.0,98,0.02,,-RA,0.08,VWS V14.01,2013-11-01 08:31:00,
2013-11-01 04:36:00,49.5,48.7,28.92,NW,321,17.0,20.0,97,0.03,,-RA,0.09,VWS V14.01,2013-11-01 08:36:00,
2013-11-01 04:41:00,49.4,48.9,28.92,NNW,327,14.0,14.0,98,0.03,,-RA,0.09,VWS V14.01,2013-11-01 08:41:00,
2013-11-01 04:46:00,49.3,48.8,28.93,NW,316,12.0,12.0,98,0.03,,-RA,0.09,VWS V14.01,2013-11-01 08:46:00,
2013-11-01 04:51:00,49.2,48.4,28.93,WNW,298,12.0,15.0,97,0.03,,-RA,0.09,VWS V14.01,2013-11-01 08:51:00,
2013-11-01 04:56:00,49.1,48.3,28.93,NNW,346,9.0,10.0,97,0.04,,-RA,0.10,VWS V14.01,2013-11-01 08:56:00,
2013-11-01 05:01:00,49.0,48.2,28.93,NNW,330,9.0,9.0,97,0.05,,-RA,0.11,VWS V14.01,2013-11-01 09:01:00,
2013-11-01 05:06:00,48.9,48.1,28.94,WNW,298,5.0,5.0,97,0.06,,-RA,0.12,VWS V14.01,2013-11-01 09:06:00,
2013-11-01 05:11:00,48.9,48.1,28.94,NW,319,13.0,13.0,97,0.06,,-RA,0.12,VWS V14.01,2013-11-01 09:11:00,
2013-11-01 05:21:00,48.9,48.1,28.94,West,273,4.0,7.0,97,0.08,,-RA,0.14,VWS V14.01,2013-11-01 09:21:00,
2013-11-01 05:26:00,49.0,48.2,28.95,North,7,8.0,11.0,97,0.09,,-RA,0.15,VWS V14.01,2013-11-01 09:26:00,
2013-11-01 05:31:00,48.9,48.1,28.95,NW,326,6.0,8.0,97,0.10,,-RA,0.16,VWS V14.01,2013-11-01 09:31:00,
2013-11-01 05:36:00,48.9,48.1,28.95,NW,320,18.0,18.0,97,0.08,,-RA,0.16,VWS V14.01,2013-11-01 09:36:00,
2013-11-01 05:41:00,48.8,48.0,28.96,NW,326,15.0,16.0,97,0.09,,-RA,0.17,VWS V14.01,2013-11-01 09:41:00,
2013-11-01 05:46:00,48.8,48.0,28.96,NNW,336,10.0,12.0,97,0.09,,-RA,0.17,VWS V14.01,2013-11-01 09:46:00,
2013-11-01 05:51:00,48.7,47.9,28.97,North,350,17.0,22.0,97,0.10,,-RA,0.18,VWS V14.01,2013-11-01 09:51:00,
2013-11-01 05:56:00,48.6,47.8,28.97,WNW,298,17.0,17.0,97,0.11,,-RA,0.19,VWS V14.01,2013-11-01 09:56:00,
2013-11-01 06:01:00,48.6,47.8,28.98,WNW,301,14.0,19.0,97,0.11,,OVC005,0.19,VWS V14.01,2013-11-01 10:01:00,
2013-11-01 06:06:00,48.5,47.4,28.99,NNW,344,13.0,13.0,96,0.09,,OVC005,0.20,VWS V14.01,2013-11-01 10:06:00,
2013-11-01 06:11:00,48.6,47.5,29.00,NW,306,17.0,22.0,96,0.09,,OVC005,0.20,VWS V14.01,2013-11-01 10:11:00,
2013-11-01 06:16:00,48.6,47.5,29.00,NNW,329,5.0,10.0,96,0.10,,OVC005,0.21,VWS V14.01,2013-11-01 10:16:00,
2013-11-01 06:21:00,48.6,47.5,29.01,NW,312,13.0,22.0,96,0.10,,OVC005,0.21,VWS V14.01,2013-11-01 10:21:00,
2013-11-01 06:26:00,48.6,47.5,29.01,West,267,9.0,14.0,96,0.11,,OVC005,0.22,VWS V14.01,2013-11-01 10:26:00,
2013-11-01 06:32:00,48.6,47.5,29.02,NW,311,11.0,11.0,96,0.11,,OVC005,0.22,VWS V14.01,2013-11-01 10:32:00,
2013-11-01 06:37:00,48.6,47.5,29.03,WNW,289,17.0,17.0,96,0.06,,OVC005,0.22,VWS V14.01,2013-11-01 10:37:00,
2013-11-01 06:42:00,48.6,47.5,29.03,NW,320,22.0,22.0,96,0.07,,OVC005,0.23,VWS V14.01,2013-11-01 10:42:00,
2013-11-01 06:47:00,48.6,47.5,29.04,NW,306,17.0,21.0,96,0.07,,OVC005,0.23,VWS V14.01,2013-11-01 10:47:00,
2013-11-01 06:52:00,48.6,47.5,29.04,NW,323,14.0,16.0,96,0.07,,OVC005,0.23,VWS V14.01,2013-11-01 10:52:00,
2013-11-01 06:57:00,48.6,47.5,29.05,NNW,341,10.0,10.0,96,0.08,,OVC005,0.24,VWS V14.01,2013-11-01 10:57:00,
2013-11-01 07:02:00,48.6,47.5,29.06,NNW,335,10.0,16.0,96,0.09,,OVC007,0.25,VWS V14.01,2013-11-01 11:02:00,
2013-11-01 07:07:00,48.5,47.4,29.06,WNW,303,15.0,20.0,96,0.06,,OVC007,0.25,VWS V14.01,2013-11-01 11:07:00,
2013-11-01 07:12:00,48.5,47.4,29.07,NW,310,23.0,24.0,96,0.07,,OVC007,0.26,VWS V14.01,2013-11-01 11:12:00,
2013-11-01 07:17:00,48.5,47.1,29.07,NNW,346,6.0,18.0,95,0.07,,OVC007,0.26,VWS V14.01,2013-11-01 11:17:00,
2013-11-01 07:22:00,48.4,47.0,29.08,NNW,332,13.0,13.0,95,0.07,,OVC007,0.26,VWS V14.01,2013-11-01 11:22:00,
2013-11-01 07:27:00,48.4,47.0,29.08,NNW,332,5.0,15.0,95,0.07,,OVC007,0.26,VWS V14.01,2013-11-01 11:27:00,
2013-11-01 07:32:00,48.3,46.9,29.09,NNW,331,12.0,12.0,95,0.07,,OVC007,0.26,VWS V14.01,2013-11-01 11:32:00,
2013-11-01 07:37:00,48.0,46.6,29.10,NNW,346,10.0,18.0,95,0.05,,OVC007,0.27,VWS V14.01,2013-11-01 11:37:00,
2013-11-01 07:42:00,47.8,46.2,29.11,WNW,295,10.0,10.0,94,0.05,,OVC007,0.27,VWS V14.01,2013-11-01 11:42:00,
2013-11-01 07:47:00,47.8,46.4,29.11,NNW,327,8.0,8.0,95,0.05,,OVC007,0.27,VWS V14.01,2013-11-01 11:47:00,
2013-11-01 07:52:00,47.7,46.3,29.11,NNW,341,16.0,22.0,95,0.05,,OVC007,0.27,VWS V14.01,2013-11-01 11:52:00,
2013-11-01 07:57:00,47.6,46.2,29.12,NW,314,11.0,12.0,95,0.05,,OVC007,0.27,VWS V14.01,2013-11-01 11:57:00,
2013-11-01 08:02:00,47.6,46.2,29.13,NW,324,14.0,15.0,95,0.05,,OVC011,0.27,VWS V14.01,2013-11-01 12:02:00,
2013-11-01 08:07:00,47.6,46.2,29.14,NW,305,18.0,18.0,95,0.02,,OVC011,0.27,VWS V14.01,2013-11-01 12:07:00,
2013-11-01 08:12:00,47.4,46.0,29.15,NNW,343,12.0,20.0,95,0.03,,OVC011,0.28,VWS V14.01,2013-11-01 12:12:00,
2013-11-01 08:17:00,47.3,45.9,29.15,NNW,327,15.0,18.0,95,0.03,,OVC011,0.28,VWS V14.01,2013-11-01 12:17:00,
2013-11-01 08:22:00,47.3,45.9,29.16,NNW,342,8.0,8.0,95,0.03,,OVC011,0.28,VWS V14.01,2013-11-01 12:22:00,
2013-11-01 08:27:00,47.2,45.8,29.17,NW,311,5.0,11.0,95,0.03,,OVC011,0.28,VWS V14.01,2013-11-01 12:27:00,
2013-11-01 08:32:00,47.2,45.8,29.17,NNW,344,14.0,14.0,95,0.03,,OVC011,0.28,VWS V14.01,2013-11-01 12:32:00,
2013-11-01 08:37:00,47.0,45.7,29.18,NNW,348,12.0,16.0,95,0.02,,OVC011,0.28,VWS V14.01,2013-11-01 12:37:00,
2013-11-01 08:42:00,47.0,45.7,29.19,North,349,6.0,12.0,95,0.02,,OVC011,0.28,VWS V14.01,2013-11-01 12:42:00,
2013-11-01 08:47:00,46.9,45.5,29.19,WNW,302,10.0,13.0,95,0.02,,OVC011,0.28,VWS V14.01,2013-11-01 12:47:00,
2013-11-01 08:52:00,46.8,45.2,29.20,NNW,344,8.0,13.0,94,0.02,,OVC011,0.28,VWS V14.01,2013-11-01 12:52:00,
2013-11-01 08:57:00,46.7,45.1,29.21,NW,304,9.0,15.0,94,0.02,,OVC011,0.28,VWS V14.01,2013-11-01 12:57:00,
2013-11-01 09:02:00,46.7,45.1,29.21,NNW,327,12.0,12.0,94,0.02,,OVC022,0.28,VWS V14.01,2013-11-01 13:02:00,
2013-11-01 09:07:00,46.7,45.3,29.21,NW,310,9.0,12.0,95,0.01,,OVC022,0.28,VWS V14.01,2013-11-01 13:07:00,
2013-11-01 09:12:00,46.7,45.1,29.22,WNW,283,8.0,11.0,94,0.01,,OVC022,0.28,VWS V14.01,2013-11-01 13:12:00,
2013-11-01 09:17:00,46.6,45.0,29.23,NNW,342,14.0,15.0,94,0.01,,OVC022,0.28,VWS V14.01,2013-11-01 13:17:00,
2013-11-01 09:22:00,46.5,44.9,29.23,West,273,7.0,13.0,94,0.01,,OVC022,0.28,VWS V14.01,2013-11-01 13:22:00,
2013-11-01 09:27:00,46.5,44.9,29.24,NNW,340,14.0,15.0,94,0.01,,OVC022,0.28,VWS V14.01,2013-11-01 13:27:00,
2013-11-01 09:32:00,46.5,44.9,29.24,NNW,329,8.0,11.0,94,0.01,,OVC022,0.28,VWS V14.01,2013-11-01 13:32:00,
2013-11-01 09:37:00,46.4,44.8,29.25,NNW,328,5.0,8.0,94,0.00,,OVC022,0.28,VWS V14.01,2013-11-01 13:37:00,
2013-11-01 09:42:00,46.3,44.7,29.25,NW,309,5.0,13.0,94,0.00,,OVC022,0.28,VWS V14.01,2013-11-01 13:42:00,
2013-11-01 09:47:00,46.2,44.3,29.26,NW,317,5.0,10.0,93,0.00,,OVC022,0.28,VWS V14.01,2013-11-01 13:47:00,
2013-11-01 09:52:00,46.0,44.1,29.26,NNW,346,9.0,11.0,93,0.00,,OVC022,0.28,VWS V14.01,2013-11-01 13:52:00,
2013-11-01 09:57:00,45.9,44.0,29.27,NNW,342,16.0,21.0,93,0.00,,OVC022,0.28,VWS V14.01,2013-11-01 13:57:00,
2013-11-01 10:02:00,45.8,43.6,29.27,NNW,344,15.0,17.0,92,0.00,,-RA,0.28,VWS V14.01,2013-11-01 14:02:00,
2013-11-01 10:07:00,45.7,43.5,29.27,NW,321,13.0,13.0,92,0.00,,-RA,0.28,VWS V14.01,2013-11-01 14:07:00,
2013-11-01 10:12:00,45.6,43.4,29.28,WNW,297,9.0,12.0,92,0.00,,-RA,0.28,VWS V14.01,2013-11-01 14:12:00,
2013-11-01 10:17:00,45.5,43.3,29.28,NW,319,15.0,19.0,92,0.00,,-RA,0.28,VWS V14.01,2013-11-01 14:17:00,
2013-11-01 10:22:00,45.5,43.6,29.28,NNW,344,9.0,9.0,93,0.00,,-RA,0.28,VWS V14.01,2013-11-01 14:22:00,
2013-11-01 10:27:00,45.4,43.5,29.28,NW,319,14.0,15.0,93,0.00,,-RA,0.28,VWS V14.01,2013-11-01 14:27:00,
2013-11-01 10:32:00,45.4,43.5,29.29,NNW,346,10.0,10.0,93,0.00,,-RA,0.28,VWS V14.01,2013-11-01 14:32:00,
2013-11-01 10:37:00,45.3,43.1,29.29,NW,307,13.0,13.0,92,0.00,,-RA,0.28,VWS V14.01,2013-11-01 14:37:00,
2013-11-01 10:42:00,45.3,43.1,29.30,NNE,15,7.0,8.0,92,0.00,,-RA,0.28,VWS V14.01,2013-11-01 14:42:00,
2013-11-01 10:47:00,45.2,43.3,29.30,West,277,3.0,6.0,93,0.00,,-RA,0.28,VWS V14.01,2013-11-01 14:47:00,
2013-11-01 10:52:00,45.1,43.2,29.30,NW,317,8.0,10.0,93,0.00,,-RA,0.28,VWS V14.01,2013-11-01 14:52:00,
2013-11-01 10:57:00,45.0,43.1,29.31,NNW,328,8.0,13.0,93,0.00,,-RA,0.28,VWS V14.01,2013-11-01 14:57:00,
2013-11-01 11:02:00,44.9,43.0,29.31,NNW,330,10.0,13.0,93,0.00,,OVC023,0.28,VWS V14.01,2013-11-01 15:02:00,
2013-11-01 11:07:00,44.8,42.9,29.32,NNW,329,6.0,11.0,93,0.00,,OVC023,0.28,VWS V14.01,2013-11-01 15:07:00,
2013-11-01 11:12:00,44.8,42.9,29.32,NW,305,2.0,5.0,93,0.00,,OVC023,0.28,VWS V14.01,2013-11-01 15:12:00,
2013-11-01 11:17:00,44.7,42.8,29.32,North,7,5.0,15.0,93,0.00,,OVC023,0.28,VWS V14.01,2013-11-01 15:17:00,
2013-11-01 11:22:00,44.7,42.8,29.33,NW,326,9.0,13.0,93,0.00,,OVC023,0.28,VWS V14.01,2013-11-01 15:22:00,
2013-11-01 11:27:00,44.6,42.7,29.33,NW,319,11.0,11.0,93,0.00,,OVC023,0.28,VWS V14.01,2013-11-01 15:27:00,
2013-11-01 11:32:00,44.6,43.0,29.33,West,280,8.0,8.0,94,0.00,,OVC023,0.28,VWS V14.01,2013-11-01 15:32:00,
2013-11-01 11:37:00,44.6,42.7,29.33,NW,318,11.0,12.0,93,0.00,,OVC023,0.28,VWS V14.01,2013-11-01 15:37:00,
2013-11-01 11:42:00,44.6,42.7,29.34,WNW,298,11.0,11.0,93,0.00,,OVC023,0.28,VWS V14.01,2013-11-01 15:42:00,
2013-11-01 11:47:00,44.5,42.6,29.34,WNW,284,6.0,11.0,93,0.00,,OVC023,0.28,VWS V14.01,2013-11-01 15:47:00,
2013-11-01 11:52:00,44.5,42.6,29.34,NW,323,3.0,7.0,93,0.00,,OVC023,0.28,VWS V14.01,2013-11-01 15:52:00,
2013-11-01 11:57:00,44.5,42.6,29.35,NW,319,8.0,10.0,93,0.00,,OVC023,0.28,VWS V14.01,2013-11-01 15:57:00,
2013-11-01 12:02:00,44.5,42.6,29.35,NNW,342,4.0,4.0,93,0.00,,OVC028,0.28,VWS V14.01,2013-11-01 16:02:00,
2013-11-01 12:07:00,44.5,42.6,29.36,NNW,327,4.0,8.0,93,0.00,,OVC028,0.28,VWS V14.01,2013-11-01 16:07:00,
2013-11-01 12:12:00,44.6,42.7,29.36,NW,324,3.0,4.0,93,0.00,,OVC028,0.28,VWS V14.01,2013-11-01 16:12:00,
2013-11-01 12:17:00,44.6,42.7,29.36,NNW,331,5.0,7.0,93,0.00,,OVC028,0.28,VWS V14.01,2013-11-01 16:17:00,
2013-11-01 12:22:00,44.6,42.4,29.37,NW,323,3.0,5.0,92,0.00,,OVC028,0.28,VWS V14.01,2013-11-01 16:22:00,
2013-11-01 12:27:00,44.7,42.5,29.37,NNW,348,8.0,8.0,92,0.00,,OVC028,0.28,VWS V14.01,2013-11-01 16:27:00,
2013-11-01 12:32:00,44.7,42.5,29.37,NW,321,1.0,2.0,92,0.00,,OVC028,0.28,VWS V14.01,2013-11-01 16:32:00,
2013-11-01 12:37:00,44.7,42.5,29.38,NW,324,4.0,8.0,92,0.00,,OVC028,0.28,VWS V14.01,2013-11-01 16:37:00,
2013-11-01 12:42:00,44.7,42.5,29.38,NNW,340,6.0,10.0,92,0.00,,OVC028,0.28,VWS V14.01,2013-11-01 16:42:00,
2013-11-01 12:47:00,44.7,42.5,29.38,NNW,329,8.0,9.0,92,0.00,,OVC028,0.28,VWS V14.01,2013-11-01 16:47:00,
2013-11-01 12:53:00,44.6,42.4,29.39,West,281,6.0,8.0,92,0.00,,OVC028,0.28,VWS V14.01,2013-11-01 16:53:00,
2013-11-01 12:58:00,44.6,42.4,29.39,NNW,327,8.0,11.0,92,0.00,,OVC028,0.28,VWS V14.01,2013-11-01 16:58:00,
2013-11-01 13:05:00,44.6,42.4,29.39,NNW,336,6.0,8.0,92,0.00,,OVC015,0.28,VWS V14.01,2013-11-01 17:05:00,
2013-11-01 13:10:00,44.6,42.4,29.39,NNW,328,6.0,8.0,92,0.00,,OVC015,0.28,VWS V14.01,2013-11-01 17:10:00,
2013-11-01 13:15:00,44.6,42.4,29.40,WNW,301,5.0,5.0,92,0.00,,OVC015,0.28,VWS V14.01,2013-11-01 17:15:00,
2013-11-01 13:20:00,44.6,42.4,29.40,West,277,6.0,6.0,92,0.00,,OVC015,0.28,VWS V14.01,2013-11-01 17:20:00,
2013-11-01 13:25:00,44.6,42.4,29.40,NW,323,2.0,2.0,92,0.00,,OVC015,0.28,VWS V14.01,2013-11-01 17:25:00,
2013-11-01 13:30:00,44.6,42.1,29.40,NNW,340,8.0,9.0,91,0.00,,OVC015,0.28,VWS V14.01,2013-11-01 17:30:00,
2013-11-01 13:35:00,44.6,42.1,29.40,NNW,346,3.0,4.0,91,0.00,,OVC015,0.28,VWS V14.01,2013-11-01 17:35:00,
2013-11-01 13:40:00,44.6,42.1,29.41,North,357,5.0,9.0,91,0.00,,OVC015,0.28,VWS V14.01,2013-11-01 17:40:00,
2013-11-01 13:45:00,44.6,42.1,29.40,NW,320,5.0,12.0,91,0.00,,OVC015,0.28,VWS V14.01,2013-11-01 17:45:00,
2013-11-01 13:50:00,44.6,41.8,29.41,NNW,335,4.0,5.0,90,0.00,,OVC015,0.28,VWS V14.01,2013-11-01 17:50:00,
2013-11-01 13:55:00,44.6,41.8,29.41,NW,318,2.0,3.0,90,0.00,,OVC015,0.28,VWS V14.01,2013-11-01 17:55:00,
2013-11-01 14:01:00,44.6,41.8,29.41,NNW,346,6.0,8.0,90,0.00,,OVC015,0.28,VWS V14.01,2013-11-01 18:01:00,
2013-11-01 14:06:00,44.6,41.8,29.41,NNW,342,6.0,6.0,90,0.00,,-RA,0.28,VWS V14.01,2013-11-01 18:06:00,
2013-11-01 14:11:00,44.7,42.0,29.41,NW,306,8.0,9.0,90,0.00,,-RA,0.28,VWS V14.01,2013-11-01 18:11:00,
2013-11-01 14:16:00,44.7,42.0,29.42,NNW,329,6.0,9.0,90,0.00,,-RA,0.28,VWS V14.01,2013-11-01 18:16:00,
2013-11-01 14:21:00,44.7,42.0,29.42,North,353,5.0,7.0,90,0.00,,-RA,0.28,VWS V14.01,2013-11-01 18:21:00,
2013-11-01 14:26:00,44.7,42.0,29.42,NW,326,6.0,11.0,90,0.00,,-RA,0.28,VWS V14.01,2013-11-01 18:26:00,
2013-11-01 14:31:00,44.7,42.0,29.42,NNW,333,5.0,5.0,90,0.00,,-RA,0.28,VWS V14.01,2013-11-01 18:31:00,
2013-11-01 14:36:00,44.7,41.7,29.42,NW,315,4.0,7.0,89,0.00,,-RA,0.28,VWS V14.01,2013-11-01 18:36:00,
2013-11-01 14:41:00,44.7,41.7,29.43,NNW,339,4.0,6.0,89,0.00,,-RA,0.28,VWS V14.01,2013-11-01 18:41:00,
2013-11-01 14:46:00,44.7,41.7,29.43,NW,324,5.0,8.0,89,0.00,,-RA,0.28,VWS V14.01,2013-11-01 18:46:00,
2013-11-01 14:51:00,44.7,41.7,29.43,NNW,341,5.0,6.0,89,0.00,,-RA,0.28,VWS V14.01,2013-11-01 18:51:00,
2013-11-01 14:56:00,44.7,41.7,29.44,NNW,331,5.0,9.0,89,0.00,,-RA,0.28,VWS V14.01,2013-11-01 18:56:00,
2013-11-01 15:01:00,44.7,41.7,29.44,NNW,345,5.0,8.0,89,0.00,,-RA,0.28,VWS V14.01,2013-11-01 19:01:00,
2013-11-01 15:06:00,44.7,41.7,29.44,NNW,340,11.0,11.0,89,0.00,,-RA,0.28,VWS V14.01,2013-11-01 19:06:00,
2013-11-01 15:11:00,44.7,41.7,29.44,NNW,335,5.0,8.0,89,0.00,,-RA,0.28,VWS V14.01,2013-11-01 19:11:00,
2013-11-01 15:16:00,44.8,42.0,29.45,North,357,3.0,4.0,90,0.00,,-RA,0.28,VWS V14.01,2013-11-01 19:16:00,
2013-11-01 15:21:00,44.8,42.0,29.45,NW,324,3.0,5.0,90,0.00,,-RA,0.28,VWS V14.01,2013-11-01 19:21:00,
2013-11-01 15:26:00,44.9,42.2,29.45,WNW,288,6.0,6.0,90,0.00,,-RA,0.28,VWS V14.01,2013-11-01 19:26:00,
2013-11-01 15:31:00,44.9,42.2,29.45,NNW,338,6.0,8.0,90,0.00,,-RA,0.28,VWS V14.01,2013-11-01 19:31:00,
2013-11-01 15:36:00,44.9,41.9,29.46,NW,321,5.0,6.0,89,0.00,,-RA,0.28,VWS V14.01,2013-11-01 19:36:00,
2013-11-01 15:41:00,44.8,42.0,29.46,NNW,336,6.0,6.0,90,0.00,,-RA,0.28,VWS V14.01,2013-11-01 19:41:00,
2013-11-01 15:46:00,44.8,42.0,29.46,NW,308,5.0,10.0,90,0.00,,-RA,0.28,VWS V14.01,2013-11-01 19:46:00,
2013-11-01 15:51:00,44.7,42.0,29.47,NW,321,4.0,4.0,90,0.00,,-RA,0.28,VWS V14.01,2013-11-01 19:51:00,
2013-11-01 15:56:00,44.7,42.0,29.47,North,11,7.0,7.0,90,0.00,,-RA,0.28,VWS V14.01,2013-11-01 19:56:00,
2013-11-01 16:01:00,44.7,42.0,29.47,NW,313,4.0,8.0,90,0.00,,-RA,0.28,VWS V14.01,2013-11-01 20:01:00,
2013-11-01 16:06:00,44.6,41.8,29.47,WNW,285,7.0,7.0,90,0.00,,-RA,0.28,VWS V14.01,2013-11-01 20:06:00,
2013-11-01 16:11:00,44.6,41.8,29.48,NNW,335,6.0,8.0,90,0.00,,-RA,0.28,VWS V14.01,2013-11-01 20:11:00,
2013-11-01 16:17:00,44.5,41.8,29.48,NW,326,6.0,8.0,90,0.00,,-RA,0.28,VWS V14.01,2013-11-01 20:17:00,
2013-11-01 16:21:00,44.5,41.5,29.49,NNW,336,5.0,6.0,89,0.00,,-RA,0.28,VWS V14.01,2013-11-01 20:21:00,
2013-11-01 16:26:00,44.4,41.4,29.49,NNE,13,7.0,7.0,89,0.00,,-RA,0.28,VWS V14.01,2013-11-01 20:26:00,
2013-11-01 16:32:00,44.4,41.4,29.49,NNE,27,4.0,5.0,89,0.00,,-RA,0.28,VWS V14.01,2013-11-01 20:32:00,
2013-11-01 16:37:00,44.4,41.4,29.49,North,350,5.0,5.0,89,0.00,,-RA,0.28,VWS V14.01,2013-11-01 20:37:00,
2013-11-01 16:42:00,44.4,41.7,29.49,NNE,22,4.0,8.0,90,0.00,,-RA,0.28,VWS V14.01,2013-11-01 20:42:00,
2013-11-01 16:47:00,44.3,41.6,29.50,NNE,12,5.0,5.0,90,0.00,,-RA,0.28,VWS V14.01,2013-11-01 20:47:00,
2013-11-01 16:52:00,44.3,41.6,29.50,NNW,338,1.0,2.0,90,0.00,,-RA,0.28,VWS V14.01,2013-11-01 20:52:00,
2013-11-01 16:57:00,44.3,41.6,29.50,North,7,8.0,8.0,90,0.00,,-RA,0.28,VWS V14.01,2013-11-01 20:57:00,
2013-11-01 17:02:00,44.2,41.2,29.51,NW,308,5.0,5.0,89,0.00,,-RA,0.28,VWS V14.01,2013-11-01 21:02:00,
2013-11-01 17:07:00,44.2,41.2,29.51,NW,322,6.0,6.0,89,0.00,,-RA,0.28,VWS V14.01,2013-11-01 21:07:00,
2013-11-01 17:12:00,44.1,40.8,29.52,NNW,329,3.0,3.0,88,0.00,,-RA,0.28,VWS V14.01,2013-11-01 21:12:00,
2013-11-01 17:17:00,44.0,40.7,29.52,NW,313,3.0,3.0,88,0.00,,-RA,0.28,VWS V14.01,2013-11-01 21:17:00,
2013-11-01 17:22:00,44.0,40.4,29.52,NNW,327,3.0,7.0,87,0.00,,-RA,0.28,VWS V14.01,2013-11-01 21:22:00,
2013-11-01 17:27:00,43.9,40.3,29.53,NW,313,5.0,5.0,87,0.00,,-RA,0.28,VWS V14.01,2013-11-01 21:27:00,
2013-11-01 17:32:00,43.8,40.5,29.53,North,11,4.0,4.0,88,0.00,,-RA,0.28,VWS V14.01,2013-11-01 21:32:00,
2013-11-01 17:37:00,43.8,40.5,29.53,NNW,348,2.0,3.0,88,0.00,,-RA,0.28,VWS V14.01,2013-11-01 21:37:00,
2013-11-01 17:42:00,43.7,40.1,29.53,NNW,337,3.0,4.0,87,0.00,,-RA,0.28,VWS V14.01,2013-11-01 21:42:00,
2013-11-01 17:47:00,43.7,40.1,29.53,NNW,347,2.0,2.0,87,0.00,,-RA,0.28,VWS V14.01,2013-11-01 21:47:00,
2013-11-01 17:52:00,43.6,40.0,29.53,NNW,340,3.0,3.0,87,0.00,,-RA,0.28,VWS V14.01,2013-11-01 21:52:00,
2013-11-01 17:57:00,43.6,40.3,29.54,NNW,343,3.0,4.0,88,0.00,,-RA,0.28,VWS V14.01,2013-11-01 21:57:00,
2013-11-01 18:02:00,43.5,40.2,29.54,NNW,335,2.0,3.0,88,0.00,,-RA,0.28,VWS V14.01,2013-11-01 22:02:00,
2013-11-01 18:07:00,43.4,40.1,29.54,NW,308,3.0,4.0,88,0.00,,-RA,0.28,VWS V14.01,2013-11-01 22:07:00,
2013-11-01 18:12:00,43.3,40.0,29.54,NNW,348,2.0,3.0,88,0.00,,-RA,0.28,VWS V14.01,2013-11-01 22:12:00,
2013-11-01 18:17:00,43.2,39.6,29.54,North,357,4.0,4.0,87,0.00,,-RA,0.28,VWS V14.01,2013-11-01 22:17:00,
2013-11-01 18:22:00,43.1,39.5,29.54,North,352,2.0,2.0,87,0.00,,-RA,0.28,VWS V14.01,2013-11-01 22:22:00,
2013-11-01 18:27:00,43.1,39.5,29.54,NNE,19,2.0,3.0,87,0.00,,-RA,0.28,VWS V14.01,2013-11-01 22:27:00,
2013-11-01 18:32:00,43.0,39.4,29.55,North,350,3.0,4.0,87,0.00,,-RA,0.28,VWS V14.01,2013-11-01 22:32:00,
2013-11-01 18:37:00,42.9,39.6,29.55,NNW,338,3.0,4.0,88,0.00,,-RA,0.28,VWS V14.01,2013-11-01 22:37:00,
2013-11-01 18:42:00,42.9,39.3,29.56,North,357,5.0,6.0,87,0.00,,-RA,0.28,VWS V14.01,2013-11-01 22:42:00,
2013-11-01 18:47:00,42.8,39.2,29.56,NW,325,2.0,3.0,87,0.00,,-RA,0.28,VWS V14.01,2013-11-01 22:47:00,
2013-11-01 18:52:00,42.8,38.9,29.56,NW,314,5.0,5.0,86,0.00,,-RA,0.28,VWS V14.01,2013-11-01 22:52:00,
2013-11-01 18:57:00,42.8,38.9,29.56,NNW,339,3.0,3.0,86,0.00,,-RA,0.28,VWS V14.01,2013-11-01 22:57:00,
2013-11-01 19:02:00,42.8,39.2,29.56,NNW,340,3.0,3.0,87,0.00,,OVC021,0.28,VWS V14.01,2013-11-01 23:02:00,
2013-11-01 19:08:00,42.8,38.9,29.57,NNW,335,5.0,5.0,86,0.00,,OVC021,0.28,VWS V14.01,2013-11-01 23:08:00,
2013-11-01 19:13:00,42.8,38.6,29.57,NNW,342,3.0,3.0,85,0.00,,OVC021,0.28,VWS V14.01,2013-11-01 23:13:00,
2013-11-01 19:18:00,42.8,38.6,29.57,NNW,338,4.0,4.0,85,0.00,,OVC021,0.28,VWS V14.01,2013-11-01 23:18:00,
2013-11-01 19:23:00,42.9,39.0,29.57,NW,325,2.0,2.0,86,0.00,,OVC021,0.28,VWS V14.01,2013-11-01 23:23:00,
2013-11-01 19:28:00,42.9,38.7,29.57,NW,321,2.0,6.0,85,0.00,,OVC021,0.28,VWS V14.01,2013-11-01 23:28:00,
2013-11-01 19:33:00,42.8,38.6,29.58,WNW,299,4.0,8.0,85,0.00,,OVC021,0.28,VWS V14.01,2013-11-01 23:33:00,
2013-11-01 19:38:00,42.9,38.4,29.58,NW,317,5.0,5.0,84,0.00,,OVC021,0.28,VWS V14.01,2013-11-01 23:38:00,
2013-11-01 19:43:00,42.8,38.3,29.58,NNW,340,3.0,5.0,84,0.00,,OVC021,0.28,VWS V14.01,2013-11-01 23:43:00,
2013-11-01 19:48:00,42.9,38.4,29.58,NNW,331,6.0,6.0,84,0.00,,OVC021,0.28,VWS V14.01,2013-11-01 23:48:00,
2013-11-01 19:53:00,42.9,38.4,29.58,NW,306,8.0,12.0,84,0.00,,OVC021,0.28,VWS V14.01,2013-11-01 23:53:00,
2013-11-01 19:58:00,42.9,38.4,29.58,NNW,331,6.0,6.0,84,0.00,,OVC021,0.28,VWS V14.01,2013-11-01 23:58:00,
2013-11-01 20:03:00,42.8,38.3,29.59,NW,323,4.0,4.0,84,0.00,,OVC044,0.28,VWS V14.01,2013-11-02 00:03:00,
2013-11-01 20:08:00,42.8,38.3,29.59,NNW,330,4.0,4.0,84,0.00,,OVC044,0.28,VWS V14.01,2013-11-02 00:08:00,
2013-11-01 20:13:00,42.8,38.3,29.59,NNW,345,5.0,6.0,84,0.00,,OVC044,0.28,VWS V14.01,2013-11-02 00:13:00,
2013-11-01 20:18:00,42.7,38.2,29.59,NNW,335,4.0,4.0,84,0.00,,OVC044,0.28,VWS V14.01,2013-11-02 00:18:00,
2013-11-01 20:23:00,42.7,38.2,29.59,NNE,18,5.0,7.0,84,0.00,,OVC044,0.28,VWS V14.01,2013-11-02 00:23:00,
2013-11-01 20:28:00,42.7,38.2,29.60,NNW,348,5.0,6.0,84,0.00,,OVC044,0.28,VWS V14.01,2013-11-02 00:28:00,
2013-11-01 20:33:00,42.7,38.5,29.60,NNW,346,3.0,5.0,85,0.00,,OVC044,0.28,VWS V14.01,2013-11-02 00:33:00,
2013-11-01 20:38:00,42.6,38.4,29.60,North,2,8.0,8.0,85,0.00,,OVC044,0.28,VWS V14.01,2013-11-02 00:38:00,
2013-11-01 20:43:00,42.5,38.3,29.60,North,2,2.0,6.0,85,0.00,,OVC044,0.28,VWS V14.01,2013-11-02 00:43:00,
2013-11-01 20:48:00,42.5,38.3,29.60,North,357,6.0,8.0,85,0.00,,OVC044,0.28,VWS V14.01,2013-11-02 00:48:00,
2013-11-01 20:53:00,42.5,38.3,29.60,North,357,9.0,9.0,85,0.00,,OVC044,0.28,VWS V14.01,2013-11-02 00:53:00,
2013-11-01 20:58:00,42.4,38.5,29.61,NW,326,6.0,6.0,86,0.00,,OVC044,0.28,VWS V14.01,2013-11-02 00:58:00,
2013-11-01 21:03:00,42.4,38.5,29.61,NNW,342,6.0,6.0,86,0.00,,BKN042,0.28,VWS V14.01,2013-11-02 01:03:00,
2013-11-01 21:08:00,42.3,38.4,29.61,NW,321,5.0,8.0,86,0.00,,BKN042,0.28,VWS V14.01,2013-11-02 01:08:00,
2013-11-01 21:13:00,42.3,38.4,29.61,NNW,344,3.0,6.0,86,0.00,,BKN042,0.28,VWS V14.01,2013-11-02 01:13:00,
2013-11-01 21:18:00,42.2,38.3,29.61,NNW,343,6.0,6.0,86,0.00,,BKN042,0.28,VWS V14.01,2013-11-02 01:18:00,
2013-11-01 21:23:00,42.2,38.6,29.61,NNW,346,5.0,9.0,87,0.00,,BKN042,0.28,VWS V14.01,2013-11-02 01:23:00,
2013-11-01 21:28:00,42.1,38.5,29.61,NNE,30,4.0,4.0,87,0.00,,BKN042,0.28,VWS V14.01,2013-11-02 01:28:00,
2013-11-01 21:33:00,42.0,38.4,29.61,NNE,15,5.0,5.0,87,0.00,,BKN042,0.28,VWS V14.01,2013-11-02 01:33:00,
2013-11-01 21:38:00,41.9,38.3,29.62,NNE,30,4.0,5.0,87,0.00,,BKN042,0.28,VWS V14.01,2013-11-02 01:38:00,
2013-11-01 21:43:00,41.8,38.5,29.62,NNE,19,4.0,4.0,88,0.00,,BKN042,0.28,VWS V14.01,2013-11-02 01:43:00,
2013-11-01 21:48:00,41.6,38.0,29.62,North,11,4.0,6.0,87,0.00,,BKN042,0.28,VWS V14.01,2013-11-02 01:48:00,
2013-11-01 21:53:00,41.6,38.3,29.62,North,7,4.0,7.0,88,0.00,,BKN042,0.28,VWS V14.01,2013-11-02 01:53:00,
2013-11-01 21:58:00,41.5,37.9,29.62,North,7,4.0,5.0,87,0.00,,BKN042,0.28,VWS V14.01,2013-11-02 01:58:00,
2013-11-01 22:03:00,41.5,37.9,29.62,North,357,6.0,9.0,87,0.00,,OVC030,0.28,VWS V14.01,2013-11-02 02:03:00,
2013-11-01 22:08:00,41.4,37.8,29.63,NNE,28,6.0,8.0,87,0.00,,OVC030,0.28,VWS V14.01,2013-11-02 02:08:00,
2013-11-01 22:13:00,41.4,37.8,29.63,North,357,8.0,8.0,87,0.00,,OVC030,0.28,VWS V14.01,2013-11-02 02:13:00,
2013-11-01 22:19:00,41.3,37.7,29.63,NNE,30,4.0,4.0,87,0.00,,OVC030,0.28,VWS V14.01,2013-11-02 02:19:00,
2013-11-01 22:24:00,41.3,37.7,29.63,North,350,3.0,4.0,87,0.00,,OVC030,0.28,VWS V14.01,2013-11-02 02:24:00,
2013-11-01 22:29:00,41.2,37.6,29.63,NNE,13,5.0,9.0,87,0.00,,OVC030,0.28,VWS V14.01,2013-11-02 02:29:00,
2013-11-01 22:34:00,41.2,37.6,29.63,North,7,3.0,4.0,87,0.00,,OVC030,0.28,VWS V14.01,2013-11-02 02:34:00,
2013-11-01 22:39:00,41.2,37.6,29.63,NNW,342,4.0,4.0,87,0.00,,OVC030,0.28,VWS V14.01,2013-11-02 02:39:00,
2013-11-01 22:44:00,41.1,37.5,29.64,NNW,346,2.0,3.0,87,0.00,,OVC030,0.28,VWS V14.01,2013-11-02 02:44:00,
2013-11-01 22:49:00,41.1,37.5,29.64,North,2,6.0,6.0,87,0.00,,OVC030,0.28,VWS V14.01,2013-11-02 02:49:00,
2013-11-01 22:54:00,41.1,37.5,29.64,NNW,337,3.0,4.0,87,0.00,,OVC030,0.28,VWS V14.01,2013-11-02 02:54:00,
2013-11-01 22:59:00,41.1,37.5,29.64,NNW,340,4.0,6.0,87,0.00,,OVC030,0.28,VWS V14.01,2013-11-02 02:59:00,
2013-11-01 23:04:00,41.1,37.2,29.65,North,357,4.0,4.0,86,0.00,,BKN040,0.28,VWS V14.01,2013-11-02 03:04:00,
2013-11-01 23:09:00,41.2,37.3,29.64,NNW,342,3.0,3.0,86,0.00,,BKN040,0.28,VWS V14.01,2013-11-02 03:09:00,
2013-11-01 23:14:00,41.2,37.3,29.64,North,357,4.0,5.0,86,0.00,,BKN040,0.28,VWS V14.01,2013-11-02 03:14:00,
2013-11-01 23:19:00,41.2,37.3,29.64,NNW,327,4.0,5.0,86,0.00,,BKN040,0.28,VWS V14.01,2013-11-02 03:19:00,
2013-11-01 23:24:00,41.2,37.3,29.64,NNW,340,2.0,3.0,86,0.00,,BKN040,0.28,VWS V14.01,2013-11-02 03:24:00,
2013-11-01 23:29:00,41.1,37.2,29.65,NNE,15,2.0,3.0,86,0.00,,BKN040,0.28,VWS V14.01,2013-11-02 03:29:00,
2013-11-01 23:34:00,41.1,37.2,29.65,NNE,18,2.0,2.0,86,0.00,,BKN040,0.28,VWS V14.01,2013-11-02 03:34:00,
2013-11-01 23:39:00,41.1,37.2,29.65,NE,38,3.0,3.0,86,0.00,,BKN040,0.28,VWS V14.01,2013-11-02 03:39:00,
2013-11-01 23:44:00,41.1,37.5,29.65,NNE,24,1.0,2.0,87,0.00,,BKN040,0.28,VWS V14.01,2013-11-02 03:44:00,
2013-11-01 23:49:00,41.0,37.1,29.65,North,2,3.0,3.0,86,0.00,,BKN040,0.28,VWS V14.01,2013-11-02 03:49:00,
2013-11-01 23:54:00,41.0,37.4,29.65,NNE,15,1.0,1.0,87,0.00,,BKN040,0.28,VWS V14.01,2013-11-02 03:54:00,
2013-11-01 23:59:00,41.0,37.4,29.65,North,350,1.0,2.0,87,0.00,,BKN040,0.28,VWS V14.01,2013-11-02 03:59:00,